Weather in Vengerovo

Russia / Novosibirsk Oblast     55°41′03″N   76°44′52″E
temp.,
°C
wind,
m/s
gust,
m/s
humid.,
%
clouds,
%
prec.,
mm/h
press.,
hPa
HPBL,
m
1 march, mon
mon101:00−16e61195100 0.4 1016353
04:00−16ene61095100 0.5 1013330
07:00−15ene5109499 0.7 1011316
10:00−15ene61094100 0.1 1011325
13:00−14ne5894100 0.2 1010328
16:00−13ne5893100 0.2 1010364
19:00−13ne4894100 0.4 1011385
22:00−14nne3795100 0.1 1011233
2 march, tue
tue201:00−19nne339783 0.1 101329
04:00−20n2210075 0.0 101420
07:00−22nnw1210079 0.0 101520
10:00−21nw119876 0.0 101620
13:00−17wsw119065 0.0 1016210
16:00−15sw228997 0.0 1015308
19:00−16sw119599 0.0 101520
22:00−17s119698 0.0 101520
3 march, wed
wed301:00−17s229790 0.1 101520
04:00−17ssw229785 0.1 101535
07:00−17ssw239782 0.1 101546
10:00−17s359777 0.1 1015128
13:00−14s469485 0.1 1015284
16:00−11s5892100 0.0 1015438
19:00−14s61193100 0.1 1015421
22:00−14s61294100 0.1 1014475
4 march, thu
thu401:00−12s61294100 0.6 1013490
04:00−9s71294100 0.6 1010502
07:00−7s71394100 1.3 1010538
10:00−5ssw81493100 0.4 1008595
13:00−2ssw81394100 0.8 1007819
16:00−1ssw81395100 0.5 1005825
19:00−2ssw81395100 1.0 1005797
22:00−2ssw81494100 0.6 1003759
5 march, fri
fri501:00−2ssw81496100 1.1 1002761
04:00−1ssw81389100 0.4 1001787
07:00−2sw7129598 0.5 1002647
10:00−6w6129199 0.6 1005559
13:00−8w6119190 0.6 1009482
16:00−7sw6118726 0.0 1012551
19:00−8ssw8158763 0.0 1011629
22:00−6ssw101793100 0.6 10091028